This demonstration page uses our WeatherBlox Daily Observations layout. Learn more.

Left ArrowRight Arrow

34.74481, -87.66753

Hourly Observations for January 27, 2020

Temp ( °F °C ) Dew Point ( °F °C ) Humidity (%) Winds ( mph kmh ) Pressure ( in mb ) Visibility ( mi km ) Precip ( " mm )
12:53 am 00:53 Cloudy 46 7.8 43 6.1 89 89 SSE 3 6 29.95 1014 10 16 0.00 0.00
1:14 am 01:14 Cloudy 47 8.3 43 6.1 86 86 S 5 7 29.96 1015 10 16 0.00 0.00
1:25 am 01:25 Cloudy 47 8.3 43 6.1 86 86 SSE 3 6 29.95 1014 10 16 0.00 0.00
1:53 am 01:53 Cloudy 47 8.3 44 6.7 90 90 S 5 7 29.93 1014 10 16 0.00 0.00
2:53 am 02:53 Cloudy 47 8.3 44 6.7 90 90 SSW 3 6 29.94 1014 10 16 0.00 0.00
3:53 am 03:53 Cloudy 48 8.9 45 7.2 89 89 Calm 29.93 1014 9 14 0.00 0.00
4:53 am 04:53 Cloudy with Mist and Fog 48 8.9 45 7.2 89 89 Calm 29.93 1014 3 4 0.00 0.00
5:15 am 05:15 Cloudy with Mist and Fog 47 8.3 45 7.2 93 93 W 3 6 29.96 1015 2 3 0.00 0.00
5:39 am 05:39 Cloudy with Mist and Fog 48 8.9 46 7.8 93 93 WNW 5 7 29.96 1015 3 4 0.00 0.00
5:46 am 05:46 Cloudy with Mist and Fog 48 8.9 46 7.8 93 93 WNW 6 9 29.96 1015 3 5 0.00 0.00
5:53 am 05:53 Cloudy with Mist and Fog 48 8.9 46 7.8 93 93 WNW 7 11 29.95 1014 4 6 0.00 0.00
6:22 am 06:22 Cloudy with Mist and Fog 48 8.9 46 7.8 93 93 W 6 9 29.97 1015 6 10 0.00 0.00
6:53 am 06:53 Cloudy 48 8.9 46 7.8 93 93 W 7 11 29.97 1015 10 16 0.00 0.00
7:20 am 07:20 Cloudy 48 8.9 46 7.8 93 93 W 8 13 30.00 1016 10 16 0.00 0.00
7:53 am 07:53 Cloudy 48 8.9 46 7.8 93 93 W 7 11 29.99 1016 10 16 0.00 0.00
8:09 am 08:09 Cloudy 49 9.4 46 7.8 90 90 W 7 11 30.00 1016 10 16 0.00 0.00
8:53 am 08:53 Cloudy 50 10 46 7.8 86 86 W 10 17 30.00 1016 10 16 0.00 0.00
9:23 am 09:23 Cloudy 50 10 46 7.8 86 86 WNW 10 17 30.02 1017 10 16 0.00 0.00
9:53 am 09:53 Cloudy 51 10.6 46 7.8 83 83 W 8 13 30.01 1016 10 16 0.00 0.00
10:21 am 10:21 Mostly Cloudy 52 11.1 45 7.2 77 77 WNW 8 13 30.02 1016 10 16 0.00 0.00
10:53 am 10:53 Mostly Cloudy 54 12.2 43 6.1 67 67 WNW 13 20 30.01 1016 10 16 0.00 0.00
11:05 am 11:05 Mostly Cloudy 54 12.2 43 6.1 67 67 WNW 12 19 30.01 1016 10 16 0.00 0.00
11:53 am 11:53 Mostly Cloudy 56 13.3 42 5.6 60 60 WNW 7 11 29.98 1015 10 16 0.00 0.00
12:00 pm 12:00 Partly Cloudy 57 13.9 42 5.6 58 58 NW 10 17 29.98 1015 10 16 0.00 0.00
12:53 pm 12:53 Mostly Cloudy 57 13.9 42 5.6 58 58 VRB 7 11 29.96 1015 10 16 0.00 0.00
1:53 pm 13:53 Sunny 59 15 41 5 51 51 WNW 6 9 29.94 1014 10 16 0.00 0.00
2:53 pm 14:53 Sunny 60 15.6 40 4.4 47 47 WNW 8 13 29.95 1014 10 16 0.00 0.00
3:53 pm 15:53 Sunny 60 15.6 40 4.4 47 47 NW 8 13 29.96 1014 10 16 0.00 0.00
4:53 pm 16:53 Sunny 56 13.3 39 3.9 53 53 WNW 9 15 29.96 1015 10 16 0.00 0.00
5:53 pm 17:53 Clear 52 11.1 38 3.3 59 59 WNW 7 11 29.98 1015 10 16 0.00 0.00
6:53 pm 18:53 Clear 51 10.6 38 3.3 61 61 NW 5 7 30.01 1016 10 16 0.00 0.00
7:53 pm 19:53 Clear 45 7.2 37 2.8 74 74 WSW 3 6 30.01 1016 10 16 0.00 0.00
8:53 pm 20:53 Clear 44 6.7 37 2.8 76 76 Calm 30.01 1016 10 16 0.00 0.00
9:53 pm 21:53 Clear 42 5.6 37 2.8 82 82 Calm 30.02 1017 10 16 0.00 0.00
10:53 pm 22:53 Clear 41 5 37 2.8 86 86 Calm 30.02 1017 10 16 0.00 0.00
11:53 pm 23:53 Clear 39 3.9 35 1.7 86 86 Calm 30.02 1017 10 16 0.00 0.00

Powered by AerisWeather